| time (UTC) | temp C | wind direction | speed KPH | gust KPH | rain 1hr cm | rain 24hr cm | rain mn cm | humidity % | barometer mb |
| 20260906120609 | 8 | 181 | 0.0 | 0.0 | 0.00 | 0.00 | 0.00 | 99 | 1031.2 |
| 20260906120106 | 8 | 211 | 0.0 | 0.0 | 0.00 | 0.00 | 0.00 | 99 | 1031.0 |
| 20260906115601 | 9 | 203 | 0.0 | 0.0 | 0.00 | 0.00 | 0.00 | 99 | 1031.2 |
| 20260906115056 | 9 | 190 | 0.0 | 0.0 | 0.00 | 0.00 | 0.00 | 99 | 1031.2 |
| 20260906114555 | 9 | 184 | 0.0 | 0.0 | 0.00 | 0.00 | 0.00 | 99 | 1031.3 |
| 20260906114051 | 8 | 204 | 0.0 | 0.0 | 0.00 | 0.00 | 0.00 | 99 | 1031.2 |
| 20260906113550 | 9 | 216 | 0.0 | 0.0 | 0.00 | 0.00 | 0.00 | 99 | 1031.0 |
| 20260906113045 | 9 | 212 | 0.0 | 0.0 | 0.00 | 0.00 | 0.00 | 99 | 1031.2 |
| 20260906112540 | 9 | 215 | 0.0 | 0.0 | 0.00 | 0.00 | 0.00 | 99 | 1031.2 |
| 20260906112037 | 9 | 201 | 0.0 | 0.0 | 0.00 | 0.00 | 0.00 | 99 | 1031.2 |
| 20260906111536 | 9 | 188 | 0.0 | 0.0 | 0.00 | 0.00 | 0.00 | 99 | 1031.0 |
| 20260906111032 | 9 | 204 | 0.0 | 0.0 | 0.00 | 0.00 | 0.00 | 99 | 1031.2 |
| 20260906110531 | 9 | 212 | 0.0 | 0.0 | 0.00 | 0.00 | 0.00 | 99 | 1031.0 |
| 20260906110031 | 9 | 208 | 0.0 | 0.0 | 0.00 | 0.00 | 0.00 | 99 | 1030.8 |
| 20260906105526 | 9 | 211 | 0.0 | 0.0 | 0.00 | 0.00 | 0.00 | 99 | 1030.9 |
| 20260906105022 | 9 | 205 | 0.0 | 0.0 | 0.00 | 0.00 | 0.00 | 99 | 1030.8 |
| 20260906104520 | 9 | 184 | 0.0 | 0.0 | 0.00 | 0.00 | 0.00 | 99 | 1030.9 |
| 20260906104015 | 9 | 213 | 0.0 | 0.0 | 0.00 | 0.00 | 0.00 | 99 | 1030.9 |
| 20260906103513 | 9 | 197 | 0.0 | 0.0 | 0.00 | 0.00 | 0.00 | 99 | 1031.3 |
| 20260906103009 | 9 | 206 | 0.0 | 0.0 | 0.00 | 0.00 | 0.00 | 99 | 1030.7 |
| 20260906102509 | 9 | 197 | 0.0 | 0.0 | 0.00 | 0.00 | 0.00 | 99 | 1030.9 |
| 20260906102009 | 9 | 199 | 0.0 | 0.0 | 0.00 | 0.00 | 0.00 | 99 | 1030.9 |
| 20260906101504 | 9 | 214 | 0.0 | 0.0 | 0.00 | 0.00 | 0.00 | 99 | 1030.9 |
| 20260906100958 | 10 | 197 | 0.0 | 0.0 | 0.00 | 0.00 | 0.00 | 99 | 1031.0 |
| 20260906100454 | 9 | 185 | 0.0 | 0.0 | 0.00 | 0.00 | 0.00 | 99 | 1030.9 |
| 20260906095948 | 9 | 196 | 0.0 | 0.0 | 0.00 | 0.00 | 0.00 | 99 | 1030.9 |
| 20260906095444 | 10 | 210 | 0.0 | 0.0 | 0.00 | 0.00 | 0.00 | 99 | 1031.0 |
| 20260906094938 | 10 | 192 | 0.0 | 0.0 | 0.00 | 0.00 | 0.00 | 99 | 1030.9 |
| 20260906094431 | 10 | 208 | 0.0 | 0.0 | 0.00 | 0.00 | 0.00 | 99 | 1031.2 |
| 20260906093923 | 10 | 208 | 0.0 | 0.0 | 0.00 | 0.00 | 0.00 | 99 | 1031.0 |
| 20260906093419 | 10 | 200 | 0.0 | 0.0 | 0.00 | 0.00 | 0.00 | 99 | 1031.0 |
| 20260906092919 | 10 | 209 | 0.0 | 0.0 | 0.00 | 0.00 | 0.00 | 99 | 1031.2 |
| 20260906092418 | 10 | 215 | 0.0 | 0.0 | 0.00 | 0.00 | 0.00 | 99 | 1031.2 |
| 20260906091914 | 10 | 208 | 0.0 | 0.0 | 0.00 | 0.00 | 0.00 | 99 | 1031.2 |
| 20260906091410 | 10 | 205 | 0.0 | 0.0 | 0.00 | 0.00 | 0.00 | 99 | 1031.2 |
| 20260906090906 | 10 | 211 | 0.0 | 0.0 | 0.00 | 0.00 | 0.00 | 99 | 1030.8 |
| 20260906090406 | 10 | 208 | 0.0 | 0.0 | 0.00 | 0.00 | 0.00 | 99 | 1031.0 |
| 20260906085901 | 10 | 183 | 0.0 | 0.0 | 0.00 | 0.00 | 0.00 | 99 | 1030.9 |
| 20260906085400 | 10 | 217 | 0.0 | 0.0 | 0.00 | 0.00 | 0.00 | 99 | 1031.2 |
| 20260906084859 | 10 | 196 | 1.6 | 1.6 | 0.00 | 0.00 | 0.00 | 99 | 1030.9 |
| 20260906084354 | 10 | 209 | 0.0 | 0.0 | 0.00 | 0.00 | 0.00 | 99 | 1031.0 |
| 20260906083848 | 10 | 191 | 0.0 | 0.0 | 0.00 | 0.00 | 0.00 | 99 | 1030.9 |
| 20260906083344 | 10 | 206 | 0.0 | 0.0 | 0.00 | 0.00 | 0.00 | 99 | 1031.2 |
| 20260906082843 | 10 | 178 | 0.0 | 0.0 | 0.00 | 0.00 | 0.00 | 99 | 1030.9 |
| 20260906082338 | 10 | 195 | 0.0 | 0.0 | 0.00 | 0.00 | 0.00 | 99 | 1030.9 |
| 20260906081835 | 10 | 180 | 1.6 | 1.6 | 0.00 | 0.00 | 0.00 | 99 | 1031.2 |
| 20260906081330 | 10 | 128 | 0.0 | 0.0 | 0.00 | 0.00 | 0.00 | 99 | 1031.2 |
| 20260906080826 | 10 | 92 | 0.0 | 0.0 | 0.00 | 0.00 | 0.00 | 99 | 1030.9 |
| 20260906080322 | 10 | 201 | 0.0 | 0.0 | 0.00 | 0.00 | 0.00 | 99 | 1031.3 |
| 20260906075821 | 10 | 214 | 0.0 | 0.0 | 0.00 | 0.00 | 0.00 | 99 | 1031.2 |
| 20260906075316 | 10 | 209 | 0.0 | 0.0 | 0.00 | 0.00 | 0.00 | 99 | 1031.0 |
| 20260906074811 | 10 | 199 | 0.0 | 0.0 | 0.00 | 0.00 | 0.00 | 99 | 1031.3 |
| 20260906074311 | 10 | 200 | 0.0 | 0.0 | 0.00 | 0.00 | 0.00 | 99 | 1031.4 |
| 20260906073810 | 10 | 189 | 0.0 | 0.0 | 0.00 | 0.00 | 0.00 | 99 | 1031.5 |
| 20260906073305 | 10 | 166 | 0.0 | 0.0 | 0.00 | 0.00 | 0.00 | 99 | 1031.2 |
| 20260906072801 | 10 | 216 | 0.0 | 0.0 | 0.00 | 0.00 | 0.00 | 99 | 1031.4 |
| 20260906072257 | 10 | 207 | 0.0 | 0.0 | 0.00 | 0.00 | 0.00 | 99 | 1031.5 |
| 20260906071752 | 10 | 186 | 0.0 | 0.0 | 0.00 | 0.00 | 0.00 | 99 | 1031.5 |
| 20260906071252 | 10 | 199 | 0.0 | 0.0 | 0.00 | 0.00 | 0.00 | 99 | 1031.5 |
| 20260906070743 | 10 | 183 | 0.0 | 0.0 | 0.00 | 0.00 | 0.00 | 99 | 1031.5 |
| 20260906070238 | 11 | 204 | 0.0 | 0.0 | 0.00 | 0.00 | 0.00 | 99 | 1031.5 |
| 20260906065738 | 11 | 190 | 0.0 | 0.0 | 0.00 | 0.00 | 0.00 | 99 | 1031.5 |
| 20260906065233 | 11 | 165 | 0.0 | 0.0 | 0.00 | 0.00 | 0.00 | 99 | 1031.4 |
| 20260906064729 | 11 | 193 | 0.0 | 0.0 | 0.00 | 0.00 | 0.00 | 99 | 1031.5 |
| 20260906064224 | 11 | 192 | 0.0 | 0.0 | 0.00 | 0.00 | 0.00 | 99 | 1031.3 |
| 20260906063719 | 11 | 214 | 0.0 | 0.0 | 0.00 | 0.00 | 0.00 | 99 | 1031.7 |
| 20260906063215 | 11 | 197 | 0.0 | 0.0 | 0.00 | 0.00 | 0.00 | 99 | 1031.7 |
| 20260906062711 | 11 | 214 | 0.0 | 0.0 | 0.00 | 0.00 | 0.00 | 99 | 1031.8 |
| 20260906062210 | 11 | 196 | 0.0 | 0.0 | 0.00 | 0.00 | 0.00 | 99 | 1031.7 |
| 20260906061705 | 11 | 217 | 0.0 | 0.0 | 0.00 | 0.00 | 0.00 | 99 | 1031.7 |
| 20260906061201 | 11 | 219 | 0.0 | 0.0 | 0.00 | 0.00 | 0.00 | 99 | 1031.9 |
| 20260906060657 | 11 | 185 | 0.0 | 0.0 | 0.00 | 0.00 | 0.00 | 99 | 1031.8 |
| 20260906060154 | 11 | 205 | 0.0 | 0.0 | 0.00 | 0.00 | 0.00 | 99 | 1032.1 |
| 20260906055649 | 12 | 125 | 0.0 | 0.0 | 0.00 | 0.53 | 0.53 | 99 | 1031.8 |
| 20260906055144 | 12 | 209 | 0.0 | 0.0 | 0.00 | 0.53 | 0.53 | 99 | 1031.8 |
| 20260906054640 | 12 | 193 | 1.6 | 1.6 | 0.00 | 0.53 | 0.53 | 99 | 1031.9 |
| 20260906054134 | 12 | 201 | 1.6 | 1.6 | 0.00 | 0.53 | 0.53 | 99 | 1032.1 |
| 20260906053631 | 12 | 186 | 0.0 | 0.0 | 0.00 | 0.53 | 0.53 | 99 | 1032.1 |
| 20260906053126 | 12 | 183 | 1.6 | 3.2 | 0.00 | 0.53 | 0.53 | 99 | 1031.9 |
| 20260906052621 | 12 | 201 | 0.0 | 0.0 | 0.00 | 0.53 | 0.53 | 99 | 1031.9 |
| 20260906052118 | 12 | 219 | 0.0 | 0.0 | 0.00 | 0.53 | 0.53 | 99 | 1032.2 |
| 20260906051614 | 12 | 221 | 0.0 | 0.0 | 0.00 | 0.53 | 0.53 | 99 | 1032.3 |
| 20260906051109 | 12 | 133 | 6.4 | 8.0 | 0.00 | 0.53 | 0.53 | 99 | 1032.4 |
| 20260906050604 | 12 | 168 | 0.0 | 0.0 | 0.00 | 0.53 | 0.53 | 99 | 1032.2 |
| 20260906050059 | 12 | 175 | 0.0 | 0.0 | 0.00 | 0.53 | 0.53 | 99 | 1032.4 |
| 20260906045557 | 12 | 209 | 0.0 | 0.0 | 0.00 | 0.53 | 0.53 | 99 | 1032.7 |
| 20260906045053 | 13 | 208 | 1.6 | 3.2 | 0.00 | 0.53 | 0.53 | 99 | 1032.4 |
| 20260906044549 | 13 | 118 | 3.2 | 3.2 | 0.00 | 0.53 | 0.53 | 99 | 1032.4 |
| 20260906044044 | 13 | 220 | 3.2 | 3.2 | 0.00 | 0.53 | 0.53 | 99 | 1032.4 |
| 20260906043540 | 13 | 223 | 0.0 | 0.0 | 0.00 | 0.53 | 0.53 | 99 | 1032.3 |
| 20260906043036 | 13 | 215 | 0.0 | 0.0 | 0.13 | 0.53 | 0.53 | 99 | 1032.4 |
| 20260906042534 | 13 | 181 | 1.6 | 1.6 | 0.30 | 0.53 | 0.53 | 98 | 1032.3 |
| 20260906042029 | 13 | 221 | 0.0 | 0.0 | 1.37 | 0.51 | 0.51 | 97 | 1032.7 |
| 20260906041525 | 13 | 247 | 4.8 | 4.8 | 2.87 | 0.48 | 0.48 | 95 | 1032.4 |
| 20260906041025 | 15 | 241 | 6.4 | 8.0 | 1.50 | 0.25 | 0.25 | 89 | 1032.6 |
| 20260906040520 | 20 | 259 | 12.9 | 14.5 | 0.00 | 0.00 | 0.00 | 63 | 1031.8 |
| 20260906040016 | 20 | 282 | 8.0 | 9.7 | 0.00 | 0.00 | 0.00 | 51 | 1031.5 |
| 20260906035510 | 20 | 303 | 8.0 | 11.3 | 0.00 | 0.00 | 0.00 | 50 | 1031.3 |
| 20260906035006 | 20 | 213 | 4.8 | 4.8 | 0.00 | 0.00 | 0.00 | 50 | 1031.4 |
| 20260906034500 | 19 | 264 | 3.2 | 3.2 | 0.00 | 0.00 | 0.00 | 49 | 1031.2 |
| 20260906033955 | 18 | 240 | 6.4 | 8.0 | 0.00 | 0.00 | 0.00 | 50 | 1031.2 |
| 20260906033450 | 17 | 259 | 1.6 | 4.8 | 0.00 | 0.00 | 0.00 | 51 | 1031.2 |
| 20260906032946 | 17 | 153 | 3.2 | 4.8 | 0.00 | 0.00 | 0.00 | 52 | 1031.0 |
| 20260906032443 | 17 | 202 | 0.0 | 0.0 | 0.00 | 0.00 | 0.00 | 52 | 1030.9 |
| 20260906031942 | 17 | 207 | 0.0 | 0.0 | 0.00 | 0.00 | 0.00 | 52 | 1031.0 |
| 20260906031438 | 17 | 207 | 0.0 | 0.0 | 0.00 | 0.00 | 0.00 | 52 | 1031.2 |
| 20260906030933 | 17 | 227 | 0.0 | 1.6 | 0.00 | 0.00 | 0.00 | 52 | 1031.2 |
| 20260906030428 | 17 | 187 | 1.6 | 1.6 | 0.00 | 0.00 | 0.00 | 52 | 1030.9 |
| 20260906025922 | 17 | 217 | 0.0 | 0.0 | 0.00 | 0.00 | 0.00 | 51 | 1031.0 |
| 20260906025417 | 17 | 221 | 0.0 | 0.0 | 0.00 | 0.00 | 0.00 | 52 | 1030.7 |
| 20260906024915 | 17 | 221 | 0.0 | 0.0 | 0.00 | 0.00 | 0.00 | 51 | 1030.7 |
| 20260906024414 | 17 | 197 | 0.0 | 0.0 | 0.00 | 0.00 | 0.00 | 51 | 1030.5 |
| 20260906023905 | 17 | 219 | 0.0 | 0.0 | 0.00 | 0.00 | 0.00 | 51 | 1030.4 |
| 20260906023401 | 17 | 214 | 0.0 | 0.0 | 0.00 | 0.00 | 0.00 | 50 | 1030.5 |
| 20260906022900 | 17 | 208 | 0.0 | 0.0 | 0.00 | 0.00 | 0.00 | 50 | 1030.3 |
| 20260906022355 | 18 | 215 | 0.0 | 0.0 | 0.00 | 0.00 | 0.00 | 50 | 1030.3 |
| 20260906021851 | 18 | 191 | 0.0 | 0.0 | 0.00 | 0.00 | 0.00 | 49 | 1030.4 |
| 20260906021350 | 18 | 184 | 1.6 | 1.6 | 0.00 | 0.00 | 0.00 | 49 | 1030.4 |
| 20260906020845 | 18 | 214 | 0.0 | 0.0 | 0.00 | 0.00 | 0.00 | 49 | 1030.2 |
| 20260906020345 | 18 | 177 | 3.2 | 3.2 | 0.00 | 0.00 | 0.00 | 47 | 1030.0 |
| 20260906015839 | 18 | 196 | 0.0 | 0.0 | 0.00 | 0.00 | 0.00 | 48 | 1030.0 |
| 20260906015339 | 18 | 212 | 0.0 | 0.0 | 0.00 | 0.00 | 0.00 | 47 | 1029.9 |
| 20260906014839 | 18 | 206 | 0.0 | 0.0 | 0.00 | 0.00 | 0.00 | 48 | 1029.9 |
| 20260906014333 | 19 | 201 | 1.6 | 1.6 | 0.00 | 0.00 | 0.00 | 46 | 1029.9 |
| 20260906013830 | 20 | 195 | 0.0 | 0.0 | 0.00 | 0.00 | 0.00 | 45 | 1029.9 |
| 20260906013325 | 20 | 205 | 0.0 | 0.0 | 0.00 | 0.00 | 0.00 | 45 | 1029.9 |
| 20260906012820 | 20 | 224 | 0.0 | 0.0 | 0.00 | 0.00 | 0.00 | 44 | 1029.8 |
| 20260906012315 | 21 | 219 | 0.0 | 0.0 | 0.00 | 0.00 | 0.00 | 42 | 1029.9 |
| 20260906011810 | 22 | 218 | 0.0 | 0.0 | 0.00 | 0.00 | 0.00 | 41 | 1029.9 |
| 20260906011310 | 22 | 215 | 0.0 | 0.0 | 0.00 | 0.00 | 0.00 | 40 | 1029.9 |
| 20260906010806 | 23 | 216 | 0.0 | 0.0 | 0.00 | 0.00 | 0.00 | 39 | 1029.9 |
| 20260906010302 | 23 | 210 | 0.0 | 0.0 | 0.00 | 0.00 | 0.00 | 39 | 1029.7 |
| 20260906005757 | 23 | 208 | 0.0 | 0.0 | 0.00 | 0.00 | 0.00 | 38 | 1029.7 |
| 20260906005256 | 23 | 214 | 0.0 | 0.0 | 0.00 | 0.00 | 0.00 | 37 | 1029.9 |
| 20260906004755 | 23 | 77 | 1.6 | 3.2 | 0.00 | 0.00 | 0.00 | 37 | 1029.8 |
| 20260906004250 | 24 | 210 | 0.0 | 0.0 | 0.00 | 0.00 | 0.00 | 37 | 1029.8 |
| 20260906003749 | 24 | 215 | 0.0 | 0.0 | 0.00 | 0.00 | 0.00 | 37 | 1029.7 |
| 20260906003245 | 25 | 139 | 1.6 | 3.2 | 0.00 | 0.00 | 0.00 | 37 | 1029.8 |
| 20260906002740 | 25 | 217 | 1.6 | 1.6 | 0.00 | 0.00 | 0.00 | 36 | 1029.7 |
| 20260906002240 | 25 | 129 | 0.0 | 1.6 | 0.00 | 0.00 | 0.00 | 36 | 1029.7 |
| 20260906001736 | 25 | 164 | 1.6 | 3.2 | 0.00 | 0.00 | 0.00 | 36 | 1029.7 |
| 20260906001231 | 25 | 82 | 3.2 | 3.2 | 0.00 | 0.00 | 0.00 | 36 | 1029.7 |
| 20260906000726 | 25 | 33 | 1.6 | 3.2 | 0.00 | 0.00 | 0.00 | 35 | 1029.5 |
| 20260906000226 | 26 | 188 | 1.6 | 3.2 | 0.00 | 0.00 | 0.00 | 35 | 1029.5 |
| 20260905235721 | 26 | 179 | 4.8 | 8.0 | 0.00 | 0.00 | 0.00 | 34 | 1029.7 |
| 20260905235216 | 26 | 162 | 3.2 | 3.2 | 0.00 | 0.00 | 0.00 | 34 | 1029.8 |
| 20260905234711 | 26 | 146 | 4.8 | 4.8 | 0.00 | 0.00 | 0.00 | 34 | 1029.4 |
| 20260905234206 | 26 | 36 | 3.2 | 3.2 | 0.00 | 0.00 | 0.00 | 34 | 1029.4 |
| 20260905233702 | 27 | 163 | 1.6 | 3.2 | 0.00 | 0.00 | 0.00 | 33 | 1029.5 |
| 20260905233201 | 27 | 184 | 11.3 | 14.5 | 0.00 | 0.00 | 0.00 | 33 | 1029.3 |
| 20260905232656 | 27 | 196 | 3.2 | 3.2 | 0.00 | 0.00 | 0.00 | 33 | 1029.7 |
| 20260905232152 | 27 | 233 | 4.8 | 8.0 | 0.00 | 0.00 | 0.00 | 33 | 1029.3 |
| 20260905231648 | 27 | 227 | 1.6 | 1.6 | 0.00 | 0.00 | 0.00 | 33 | 1029.5 |
| 20260905231143 | 27 | 221 | 1.6 | 3.2 | 0.00 | 0.00 | 0.00 | 33 | 1029.4 |
| 20260905230639 | 27 | 170 | 1.6 | 3.2 | 0.00 | 0.00 | 0.00 | 33 | 1029.3 |
| 20260905230136 | 27 | 42 | 3.2 | 3.2 | 0.00 | 0.00 | 0.00 | 33 | 1029.3 |
| 20260905225631 | 27 | 194 | 0.0 | 0.0 | 0.00 | 0.00 | 0.00 | 33 | 1029.4 |
| 20260905225126 | 27 | 257 | 4.8 | 4.8 | 0.00 | 0.00 | 0.00 | 33 | 1029.4 |
| 20260905224625 | 27 | 223 | 0.0 | 0.0 | 0.00 | 0.00 | 0.00 | 32 | 1029.4 |
| 20260905224125 | 27 | 179 | 0.0 | 0.0 | 0.00 | 0.00 | 0.00 | 33 | 1029.4 |
| 20260905223622 | 27 | 210 | 0.0 | 0.0 | 0.00 | 0.00 | 0.00 | 32 | 1029.1 |
| 20260905223118 | 28 | 216 | 0.0 | 1.6 | 0.00 | 0.00 | 0.00 | 32 | 1029.3 |
| 20260905222619 | 28 | 243 | 0.0 | 0.0 | 0.00 | 0.00 | 0.00 | 33 | 1029.4 |
| 20260905222113 | 28 | 220 | 0.0 | 0.0 | 0.00 | 0.00 | 0.00 | 32 | 1029.5 |
| 20260905221609 | 28 | 23 | 3.2 | 3.2 | 0.00 | 0.00 | 0.00 | 32 | 1029.7 |
| 20260905221106 | 27 | 229 | 1.6 | 1.6 | 0.00 | 0.00 | 0.00 | 32 | 1029.7 |
| 20260905220601 | 27 | 237 | 3.2 | 4.8 | 0.00 | 0.00 | 0.00 | 34 | 1029.7 |
| 20260905220057 | 26 | 223 | 4.8 | 4.8 | 0.00 | 0.00 | 0.00 | 34 | 1029.8 |
| 20260905215556 | 27 | 30 | 6.4 | 9.7 | 0.00 | 0.00 | 0.00 | 34 | 1029.8 |
| 20260905215052 | 27 | 218 | 4.8 | 4.8 | 0.00 | 0.00 | 0.00 | 34 | 1029.8 |
| 20260905214548 | 26 | 149 | 0.0 | 1.6 | 0.00 | 0.00 | 0.00 | 34 | 1029.9 |
| 20260905214043 | 27 | 216 | 0.0 | 0.0 | 0.00 | 0.00 | 0.00 | 34 | 1030.0 |
| 20260905213538 | 26 | 193 | 8.0 | 11.3 | 0.00 | 0.00 | 0.00 | 34 | 1029.9 |
| 20260905213034 | 26 | 323 | 8.0 | 11.3 | 0.00 | 0.00 | 0.00 | 34 | 1030.0 |
| 20260905212534 | 26 | 253 | 8.0 | 12.9 | 0.00 | 0.00 | 0.00 | 34 | 1030.3 |
| 20260905212028 | 26 | 48 | 4.8 | 8.0 | 0.00 | 0.00 | 0.00 | 35 | 1030.3 |
| 20260905211523 | 26 | 32 | 1.6 | 3.2 | 0.00 | 0.00 | 0.00 | 35 | 1030.2 |
| 20260905211019 | 26 | 228 | 1.6 | 1.6 | 0.00 | 0.00 | 0.00 | 35 | 1030.3 |
| 20260905210515 | 26 | 50 | 3.2 | 4.8 | 0.00 | 0.00 | 0.00 | 35 | 1030.3 |
| 20260905210015 | 25 | 76 | 1.6 | 1.6 | 0.00 | 0.00 | 0.00 | 36 | 1030.5 |
| 20260905205514 | 25 | 229 | 3.2 | 3.2 | 0.00 | 0.00 | 0.00 | 35 | 1030.4 |
| 20260905205013 | 26 | 25 | 8.0 | 9.7 | 0.00 | 0.00 | 0.00 | 35 | 1030.7 |
| 20260905204509 | 26 | 337 | 1.6 | 1.6 | 0.00 | 0.00 | 0.00 | 34 | 1030.4 |
| 20260905204008 | 27 | 210 | 0.0 | 1.6 | 0.00 | 0.00 | 0.00 | 34 | 1030.4 |
| 20260905203503 | 27 | 202 | 9.7 | 12.9 | 0.00 | 0.00 | 0.00 | 33 | 1030.7 |
| 20260905202958 | 27 | 43 | 8.0 | 11.3 | 0.00 | 0.00 | 0.00 | 33 | 1030.2 |
| 20260905202453 | 27 | 94 | 1.6 | 4.8 | 0.00 | 0.00 | 0.00 | 34 | 1030.8 |
| 20260905201944 | 26 | 160 | 4.8 | 4.8 | 0.00 | 0.00 | 0.00 | 34 | 1030.5 |
| 20260905201439 | 26 | 13 | 3.2 | 3.2 | 0.00 | 0.00 | 0.00 | 34 | 1030.5 |
| 20260905200938 | 27 | 259 | 4.8 | 11.3 | 0.00 | 0.00 | 0.00 | 33 | 1030.4 |
| 20260905200435 | 26 | 32 | 1.6 | 1.6 | 0.00 | 0.00 | 0.00 | 34 | 1030.5 |
| 20260905195933 | 25 | 3 | 6.4 | 8.0 | 0.00 | 0.00 | 0.00 | 35 | 1030.4 |
| 20260905195428 | 26 | 242 | 6.4 | 9.7 | 0.00 | 0.00 | 0.00 | 35 | 1030.7 |
| 20260905194924 | 26 | 176 | 6.4 | 11.3 | 0.00 | 0.00 | 0.00 | 36 | 1030.7 |
| 20260905194423 | 26 | 86 | 4.8 | 12.9 | 0.00 | 0.00 | 0.00 | 36 | 1030.8 |
| 20260905193923 | 26 | 36 | 9.7 | 9.7 | 0.00 | 0.00 | 0.00 | 35 | 1030.8 |
| 20260905193418 | 25 | 207 | 6.4 | 9.7 | 0.00 | 0.00 | 0.00 | 36 | 1030.5 |
| 20260905192913 | 26 | 153 | 6.4 | 9.7 | 0.00 | 0.00 | 0.00 | 36 | 1030.7 |
| 20260905192409 | 26 | 356 | 6.4 | 9.7 | 0.00 | 0.00 | 0.00 | 36 | 1030.7 |
| 20260905191908 | 26 | 34 | 12.9 | 14.5 | 0.00 | 0.00 | 0.00 | 35 | 1030.7 |
| 20260905191407 | 26 | 28 | 4.8 | 9.7 | 0.00 | 0.00 | 0.00 | 34 | 1030.8 |
| 20260905190902 | 26 | 292 | 4.8 | 8.0 | 0.00 | 0.00 | 0.00 | 35 | 1031.0 |
| 20260905190354 | 26 | 77 | 3.2 | 4.8 | 0.00 | 0.00 | 0.00 | 35 | 1030.7 |
| 20260905185853 | 26 | 120 | 8.0 | 9.7 | 0.00 | 0.00 | 0.00 | 35 | 1030.8 |
| 20260905185349 | 25 | 114 | 8.0 | 11.3 | 0.00 | 0.00 | 0.00 | 36 | 1030.9 |
| 20260905184848 | 25 | 157 | 4.8 | 4.8 | 0.00 | 0.00 | 0.00 | 37 | 1030.8 |
| 20260905184347 | 25 | 172 | 4.8 | 9.7 | 0.00 | 0.00 | 0.00 | 36 | 1031.0 |
| 20260905183845 | 26 | 171 | 4.8 | 4.8 | 0.00 | 0.00 | 0.00 | 35 | 1030.9 |
| 20260905183341 | 26 | 83 | 4.8 | 8.0 | 0.00 | 0.00 | 0.00 | 34 | 1030.8 |
| 20260905182836 | 25 | 306 | 8.0 | 16.1 | 0.00 | 0.00 | 0.00 | 35 | 1030.7 |
| 20260905182335 | 25 | 223 | 3.2 | 4.8 | 0.00 | 0.00 | 0.00 | 36 | 1030.9 |
| 20260905181831 | 25 | 295 | 9.7 | 12.9 | 0.00 | 0.00 | 0.00 | 35 | 1030.8 |
| 20260905181330 | 25 | 31 | 6.4 | 8.0 | 0.00 | 0.00 | 0.00 | 35 | 1030.8 |
| 20260905180829 | 25 | 39 | 3.2 | 3.2 | 0.00 | 0.00 | 0.00 | 35 | 1030.8 |
| 20260905180325 | 25 | 128 | 6.4 | 9.7 | 0.00 | 0.00 | 0.00 | 35 | 1031.0 |
| 20260905175819 | 25 | 5 | 4.8 | 9.7 | 0.00 | 0.00 | 0.00 | 35 | 1031.0 |
| 20260905175314 | 25 | 223 | 3.2 | 3.2 | 0.00 | 0.00 | 0.00 | 35 | 1031.0 |
| 20260905174809 | 25 | 133 | 4.8 | 8.0 | 0.00 | 0.00 | 0.00 | 35 | 1030.9 |
| 20260905174305 | 26 | 121 | 3.2 | 8.0 | 0.00 | 0.00 | 0.00 | 34 | 1031.3 |
| 20260905173801 | 27 | 148 | 4.8 | 4.8 | 0.00 | 0.00 | 0.00 | 33 | 1030.9 |
| 20260905173257 | 27 | 237 | 1.6 | 1.6 | 0.00 | 0.00 | 0.00 | 34 | 1031.0 |
| 20260905172756 | 27 | 143 | 8.0 | 9.7 | 0.00 | 0.00 | 0.00 | 33 | 1030.8 |
| 20260905172254 | 27 | 66 | 6.4 | 9.7 | 0.00 | 0.00 | 0.00 | 34 | 1030.9 |
| 20260905171751 | 27 | 114 | 3.2 | 3.2 | 0.00 | 0.00 | 0.00 | 33 | 1030.7 |
| 20260905171248 | 27 | 184 | 3.2 | 3.2 | 0.00 | 0.00 | 0.00 | 33 | 1031.0 |
| 20260905170743 | 26 | 144 | 1.6 | 3.2 | 0.00 | 0.00 | 0.00 | 35 | 1031.0 |
| 20260905170239 | 25 | 67 | 9.7 | 11.3 | 0.00 | 0.00 | 0.00 | 35 | 1030.9 |
| 20260905165738 | 24 | 322 | 0.0 | 1.6 | 0.00 | 0.00 | 0.00 | 36 | 1031.0 |
| 20260905165234 | 25 | 58 | 1.6 | 1.6 | 0.00 | 0.00 | 0.00 | 38 | 1031.0 |
| 20260905164733 | 25 | 97 | 3.2 | 3.2 | 0.00 | 0.00 | 0.00 | 36 | 1031.0 |
| 20260905164228 | 25 | 198 | 0.0 | 0.0 | 0.00 | 0.00 | 0.00 | 37 | 1030.9 |
| 20260905163725 | 24 | 224 | 4.8 | 8.0 | 0.00 | 0.00 | 0.00 | 37 | 1030.9 |
| 20260905163220 | 25 | 267 | 4.8 | 4.8 | 0.00 | 0.00 | 0.00 | 36 | 1030.9 |
| 20260905162717 | 24 | 89 | 1.6 | 1.6 | 0.00 | 0.00 | 0.00 | 36 | 1031.0 |
| 20260905162216 | 24 | 118 | 3.2 | 4.8 | 0.00 | 0.00 | 0.00 | 36 | 1030.8 |
| 20260905161711 | 23 | 272 | 3.2 | 3.2 | 0.00 | 0.00 | 0.00 | 37 | 1030.9 |
| 20260905161209 | 24 | 54 | 1.6 | 3.2 | 0.00 | 0.00 | 0.00 | 36 | 1030.9 |
| 20260905160708 | 23 | 276 | 4.8 | 4.8 | 0.00 | 0.00 | 0.00 | 37 | 1030.9 |
| 20260905160202 | 23 | 147 | 8.0 | 9.7 | 0.00 | 0.00 | 0.00 | 37 | 1030.8 |
| 20260905155701 | 23 | 89 | 3.2 | 3.2 | 0.00 | 0.00 | 0.00 | 38 | 1031.0 |
| 20260905155201 | 23 | 25 | 6.4 | 8.0 | 0.00 | 0.00 | 0.00 | 39 | 1031.0 |
| 20260905154650 | 23 | 17 | 6.4 | 8.0 | 0.00 | 0.00 | 0.00 | 38 | 1031.0 |
| 20260905154145 | 23 | 343 | 3.2 | 3.2 | 0.00 | 0.00 | 0.00 | 39 | 1031.2 |
| 20260905153641 | 22 | 1 | 9.7 | 11.3 | 0.00 | 0.00 | 0.00 | 39 | 1030.8 |
| 20260905153136 | 22 | 204 | 4.8 | 4.8 | 0.00 | 0.00 | 0.00 | 40 | 1030.8 |
| 20260905152631 | 22 | 348 | 1.6 | 3.2 | 0.00 | 0.00 | 0.00 | 41 | 1031.0 |
| 20260905152125 | 22 | 49 | 4.8 | 8.0 | 0.00 | 0.00 | 0.00 | 41 | 1030.8 |
| 20260905151620 | 21 | 24 | 3.2 | 3.2 | 0.00 | 0.00 | 0.00 | 42 | 1030.9 |
| 20260905151116 | 21 | 341 | 1.6 | 1.6 | 0.00 | 0.00 | 0.00 | 44 | 1030.9 |
| 20260905150606 | 20 | 56 | 4.8 | 4.8 | 0.00 | 0.00 | 0.00 | 46 | 1030.7 |
| 20260905145556 | 20 | 116 | 4.8 | 4.8 | 0.00 | 0.00 | 0.00 | 48 | 1030.9 |
| 20260905145055 | 19 | 23 | 1.6 | 1.6 | 0.00 | 0.00 | 0.00 | 51 | 1030.9 |
| 20260905144551 | 18 | 220 | 0.0 | 0.0 | 0.00 | 0.00 | 0.00 | 53 | 1030.8 |
| 20260905144049 | 17 | 218 | 0.0 | 0.0 | 0.00 | 0.00 | 0.00 | 54 | 1031.2 |
| 20260905143543 | 17 | 211 | 0.0 | 0.0 | 0.00 | 0.00 | 0.00 | 56 | 1031.0 |
| 20260905143038 | 16 | 189 | 1.6 | 1.6 | 0.00 | 0.00 | 0.00 | 58 | 1031.0 |
| 20260905142537 | 15 | 206 | 0.0 | 0.0 | 0.00 | 0.00 | 0.00 | 60 | 1031.4 |
| 20260905142032 | 15 | 223 | 0.0 | 0.0 | 0.00 | 0.00 | 0.00 | 61 | 1031.0 |
| 20260905141527 | 14 | 219 | 0.0 | 0.0 | 0.00 | 0.00 | 0.00 | 62 | 1031.0 |
| 20260905141024 | 13 | 214 | 0.0 | 0.0 | 0.00 | 0.00 | 0.00 | 64 | 1030.9 |
| 20260905140524 | 13 | 213 | 0.0 | 0.0 | 0.00 | 0.00 | 0.00 | 66 | 1031.3 |
| 20260905140023 | 13 | 197 | 1.6 | 1.6 | 0.00 | 0.00 | 0.00 | 65 | 1031.2 |
| 20260905135518 | 12 | 178 | 1.6 | 3.2 | 0.00 | 0.00 | 0.00 | 67 | 1031.0 |
| 20260905135013 | 13 | 215 | 0.0 | 0.0 | 0.00 | 0.00 | 0.00 | 65 | 1030.9 |
| 20260905134508 | 12 | 213 | 0.0 | 0.0 | 0.00 | 0.00 | 0.00 | 65 | 1030.8 |
| 20260905134007 | 12 | 195 | 0.0 | 1.6 | 0.00 | 0.00 | 0.00 | 66 | 1030.8 |
| 20260905133502 | 11 | 208 | 0.0 | 0.0 | 0.00 | 0.00 | 0.00 | 68 | 1030.7 |
| 20260905133001 | 11 | 226 | 0.0 | 0.0 | 0.00 | 0.00 | 0.00 | 68 | 1030.8 |
| 20260905132457 | 11 | 185 | 3.2 | 3.2 | 0.00 | 0.00 | 0.00 | 70 | 1030.7 |
| 20260905131951 | 10 | 219 | 0.0 | 0.0 | 0.00 | 0.00 | 0.00 | 71 | 1030.7 |
| 20260905131447 | 11 | 196 | 1.6 | 1.6 | 0.00 | 0.00 | 0.00 | 70 | 1030.9 |
| 20260905130942 | 10 | 201 | 0.0 | 0.0 | 0.00 | 0.00 | 0.00 | 71 | 1030.4 |
| 20260905130441 | 10 | 214 | 0.0 | 0.0 | 0.00 | 0.00 | 0.00 | 72 | 1030.8 |
| 20260905125941 | 10 | 208 | 0.0 | 0.0 | 0.00 | 0.00 | 0.00 | 71 | 1030.7 |
| 20260905125436 | 10 | 181 | 0.0 | 1.6 | 0.00 | 0.00 | 0.00 | 71 | 1030.7 |
| 20260905124932 | 10 | 228 | 1.6 | 1.6 | 0.00 | 0.00 | 0.00 | 72 | 1030.7 |
| 20260905124428 | 10 | 215 | 0.0 | 0.0 | 0.00 | 0.00 | 0.00 | 71 | 1030.4 |
| 20260905123928 | 10 | 217 | 0.0 | 0.0 | 0.00 | 0.00 | 0.00 | 71 | 1030.5 |
| 20260905123425 | 10 | 221 | 0.0 | 0.0 | 0.00 | 0.00 | 0.00 | 71 | 1030.4 |
| 20260905122920 | 10 | 193 | 0.0 | 1.6 | 0.00 | 0.00 | 0.00 | 71 | 1030.4 |
| 20260905122419 | 10 | 199 | 0.0 | 0.0 | 0.00 | 0.00 | 0.00 | 71 | 1030.5 |
| 20260905121915 | 11 | 220 | 0.0 | 0.0 | 0.00 | 0.00 | 0.00 | 69 | 1030.2 |
| 20260905121410 | 10 | 217 | 0.0 | 0.0 | 0.00 | 0.00 | 0.00 | 71 | 1030.0 |
| 20260905120909 | 10 | 170 | 1.6 | 3.2 | 0.00 | 0.00 | 0.00 | 71 | 1030.4 |